Location: Ammerl�gen
(47.2167°N, 9.6000°E)
Time: 16:46:00
(UTC+00:00)

Lacrosse 5 rocket - Pass Details

Date: 21 April 2021
Orbit: 461 x 634 km, 57.0° (Epoch: 07 May)

Event Time Altitude Azimuth Distance (km) Brightness Sun altitude
Rises 20:47:41 0° 304° (NW) 2,742 6.2 -21.6°
Reaches altitude 10° 20:50:09 10° 317° (NW) 1,878 5.2 -21.8°
Maximum altitude 20:53:49 27° 16° (NNE) 1,148 3.2 -22.2°
Enters shadow 20:56:04 18° 60° (ENE) 1,484 3.4 -22.5°
